Погода в Ипохе

Малайзия     4°37′41″N   101°05′58″E
темп.,
°C
ветер,
м/с
пор.,
м/с
влажн.,
%
обл.,
%
осадки,
мм/ч
давл.,
гПа
погр.,
м
31 июля, сб
сб3123:00+23ссв119799 0.0 101421
02:00+22с1197100 0.0 101229
05:00+22с1197100 0.0 101120
08:00+22с1195100 0.0 101145
11:00+30зюз016180 0.0 1012687
14:00+34ю124476 0.0 10102225
17:00+27юз1178100 0.6 100829
20:00+24сз1193100 1.9 101011
1 августа, вс
вс123:00+23ссв1197100 0.0 101226
02:00+22с1198100 0.0 101136
05:00+22с1198100 0.1 101032
08:00+22с1297100 0.1 101177
11:00+28ссв1169100 0.0 1012480
14:00+32з1153100 0.1 10091407
17:00+30сз2259100 1.6 10081031
20:00+23юв1297100 6.5 100960
2 августа, пн
пн223:00+23ссв1198100 1.1 101221
02:00+22с1198100 1.1 101025
05:00+22ссв1198100 0.0 100923
08:00+22ссв1196100 0.0 101052
11:00+29зсз0165100 0.0 1011524
14:00+29ююв1261100 0.0 1009905
17:00+31ю1156100 0.3 10081235
20:00+25зсз118399 0.6 100911
3 августа, вт
вт323:00+23с009475 1.9 101212
02:00+22ссв119998 4.8 101142
05:00+22ссв119899 0.3 101034
08:00+22ссв119772 0.3 101158
11:00+30юв00627 0.0 1012685
14:00+33ююв124684 0.0 10092134
17:00+26юз238997 1.5 100861
20:00+24юз119495 4.8 101111
4 августа, ср
ср423:00+23ссв009743 0.0 101212
02:00+22св119924 0.1 101118
05:00+22с1199100 0.1 101122
08:00+22ссв1298100 0.1 101272
11:00+28всв007378 0.1 1013568
14:00+32ю225599 1.6 10101395
17:00+26зюз139097 1.8 1009124
20:00+24сз009574 3.9 101111